Location: Kelowna
(49.8880°N, 119.4960°W)
Time: 01:48:49
(UTC-07:00)

CAS-4A - Pass Details

Date: 19 April 2024
Orbit: 475 x 491 km, 43.0° (Epoch: 25 May)

Event Time Altitude Azimuth Distance (km) Brightness Sun altitude
Exits shadow 02:35:59 - 111° (ESE) 2,413 ? -25.0°
Enters shadow 03:35:00 -65° 255° (WSW) 12,045 ? -19.6°
Maximum altitude 04:11:04 18° 159° (SSE) 1,267 ? -15.5°
